Location: Ballard
(38.3614°N, 94.1431°W)
Time: 12:26:22
(UTC-05:00)

Hubble Space Telescope - Pass Details

Date: 28 March 2019
Orbit: 536 x 540 km, 28.5° (Epoch: 20 October)

Event Time Altitude Azimuth Distance (km) Brightness Sun altitude
Rises 20:52:32 0° 245° (WSW) 2,673 5.1 -15.5°
Reaches altitude 10° 20:55:12 10° 229° (SW) 1,783 3.8 -16.0°
Maximum altitude 20:58:18 21° 180° (S) 1,248 2.4 -16.6°
Enters shadow 20:59:12 19° 162° (SSE) 1,301 2.4 -16.8°
